2023/11/10,6:29:00,0.082,N35.68078147083806,E139.76691468043674,66.9,69
2023/11/10,6:30:00,0.022,N35.68120153865546,E139.767165907162,23.7,70
2023/11/10,6:31:00,0.035,N35.68120153865546,E139.767165907162,23.7,66
2023/11/10,6:32:00,0.037,N35.68120153865546,E139.767165907162,23.7,95
2023/11/10,6:33:00,0.021,N35.68120153865546,E139.767165907162,23.7,98
2023/11/10,6:34:00,0.023,N35.691534053669386,E139.77103219183482,18.7,84
2023/11/10,6:35:00,0.015,N35.695595307381936,E139.7725494523229,18.5,89
2023/11/10,6:36:00,0.027,N35.695595307381936,E139.7725494523229,18.5,105
2023/11/10,6:37:00,0.034,N35.695595307381936,E139.7725494523229,18.5,79
2023/11/10,6:38:00,0.024,N35.695595307381936,E139.7725494523229,18.5,91
2023/11/10,6:39:00,0.023,N35.695595307381936,E139.7725494523229,18.5,77
2023/11/10,6:40:00,0.039,N35.695595307381936,E139.7725494523229,18.5,106
2023/11/10,6:41:00,0.054,N35.73329064758129,E139.76636092858524,36.9,120
2023/11/10,6:42:00,0.021,N35.73802135767342,E139.76170673099344,16.1,95
2023/11/10,6:43:00,0.053,N35.75088285213141,E139.74042124917747,14.9,80
2023/11/10,6:44:00,0.023,N35.75088285213141,E139.74042124917747,14.9,80
2023/11/10,6:46:00,0.033,N35.77623059420267,E139.7216531849062,20.3,98
2023/11/10,6:48:00,0.019,N35.78775315146865,E139.70443141454737,25.1,74
2023/11/10,6:50:00,0.073,N35.82358923030907,E139.66582309735173,6.7,88
2023/11/10,6:51:00,0.039,N35.82358923030907,E139.66582309735173,6.7,89
2023/11/10,6:52:00,0.029,N35.82358923030907,E139.66582309735173,6.7,73
2023/11/10,6:53:00,0.058,N35.82358923030907,E139.66582309735173,6.7,66
2023/11/10,6:54:00,0.038,N35.82358923030907,E139.66582309735173,6.7,81
2023/11/10,6:55:00,0.057,N35.89585799130186,E139.6290836024051,29.1,98
2023/11/10,6:56:00,0.018,N35.89585799130186,E139.6290836024051,29.1,65
2023/11/10,6:57:00,0.048,N35.89585799130186,E139.6290836024051,29.1,88
2023/11/10,6:58:00,0.025,N35.89585799130186,E139.6290836024051,29.1,68
2023/11/10,6:59:00,0.062,N35.89585799130186,E139.6290836024051,29.1,85
2023/11/10,7:00:00,0.056,N35.94875874956311,E139.61942489280545,13.9,104
2023/11/10,7:01:00,0.06,N35.94875874956311,E139.61942489280545,13.9,86
2023/11/10,7:02:00,0.068,N35.94875874956311,E139.61942489280545,13.9,87
2023/11/10,7:03:00,0.032,N35.94875874956311,E139.61942489280545,13.9,90
2023/11/10,7:04:00,0.025,N36.067416437675405,E139.67882678908114,21.7,90
2023/11/10,7:05:00,0.075,N36.12416092068679,E139.7145725291012,21.2,89
2023/11/10,7:06:00,0.076,N36.12416092068679,E139.7145725291012,21.2,74
2023/11/10,7:07:00,0.013,N36.12416092068679,E139.7145725291012,21.2,83
2023/11/10,7:08:00,0.018,N36.12416092068679,E139.7145725291012,21.2,87
2023/11/10,7:09:00,0.02,N36.2796098912312,E139.77973777857613,36.6,91
2023/11/10,7:10:00,0.035,N36.2796098912312,E139.77973777857613,36.6,78
2023/11/10,7:11:00,0.022,N36.34992005565569,E139.82766698426784,65.8,96
2023/11/10,7:12:00,0.05,N36.34992005565569,E139.82766698426784,65.8,84
2023/11/10,7:13:00,0.05,N36.40197301430529,E139.85818024488324,70.7,74
2023/11/10,7:14:00,0.026,N36.40197301430529,E139.85818024488324,70.7,91
2023/11/10,7:15:00,0.058,N36.50059591732912,E139.88052099030972,101.6,89
2023/11/10,7:16:00,0.03,N36.523450472658105,E139.8889031328776,106.8,80
2023/11/10,7:17:00,0.011,N36.523450472658105,E139.8889031328776,106.8,97
2023/11/10,7:18:00,0.022,N36.523450472658105,E139.8889031328776,106.8,111
2023/11/10,7:19:00,0.048,N36.523450472658105,E139.8889031328776,106.8,83
2023/11/10,7:20:00,0.037,N36.523450472658105,E139.8889031328776,106.8,77
2023/11/10,7:21:00,0.063,N36.523450472658105,E139.8889031328776,106.8,94
2023/11/10,7:22:00,0.019,N36.71105813375949,E139.92312601950715,213.7,90
2023/11/10,7:23:00,0.055,N36.71105813375949,E139.92312601950715,213.7,93
2023/11/10,7:24:00,0.033,N36.71105813375949,E139.92312601950715,213.7,105
2023/11/10,7:25:00,0.015,N36.886009994776856,E139.98772583780942,283.4,104
2023/11/10,7:26:00,0.029,N36.886009994776856,E139.98772583780942,283.4,136
2023/11/10,7:27:00,0.021,N36.886009994776856,E139.98772583780942,283.4,119
2023/11/10,7:28:00,0.082,N36.97481883355726,E140.06382757701078,317.4,119
2023/11/10,7:29:00,0.049,N36.97481883355726,E140.06382757701078,317.4,148
2023/11/10,7:30:00,0.034,N36.97481883355726,E140.06382757701078,317.4,136
2023/11/10,7:31:00,0.01,N36.97481883355726,E140.06382757701078,317.4,133
2023/11/10,7:32:00,0.033,N36.97481883355726,E140.06382757701078,317.4,134
2023/11/10,7:33:00,0.076,N36.97481883355726,E140.06382757701078,317.4,180
2023/11/10,7:34:00,0.071,N36.97481883355726,E140.06382757701078,317.4,156
2023/11/10,7:35:00,0.018,N37.2430147862152,E140.29654640883166,293.2,167
2023/11/10,7:36:00,0.03,N37.2430147862152,E140.29654640883166,293.2,138
2023/11/10,7:37:00,0.027,N37.2430147862152,E140.29654640883166,293.2,146
2023/11/10,7:38:00,0.056,N37.40234979542521,E140.3895418924718,224.8,160
2023/11/10,7:40:00,0.031,N37.40234979542521,E140.3895418924718,224.8,157
2023/11/10,7:41:00,0.039,N37.520994225384406,E140.43466537581529,249.1,245
2023/11/10,7:42:00,0.074,N37.54826334970109,E140.449579900615,262.4,207
2023/11/10,7:43:00,0.036,N37.54826334970109,E140.449579900615,262.4,133
2023/11/10,7:44:00,0.015,N37.54826334970109,E140.449579900615,262.4,125
2023/11/10,7:45:00,0.006,N37.54826334970109,E140.449579900615,262.4,71
2023/11/10,7:46:00,0.025,N37.54826334970109,E140.449579900615,262.4,156
2023/11/10,7:49:00,0.027,N37.8220172712874,E140.49233049194325,84.2,112
2023/11/10,7:50:00,0.046,N37.86454565836135,E140.52445927805007,113.8,140
2023/11/10,7:51:00,0.032,N37.86454565836135,E140.52445927805007,113.8,103
2023/11/10,7:52:00,0.023,N37.86454565836135,E140.52445927805007,113.8,103
2023/11/10,7:53:00,0.026,N37.86454565836135,E140.52445927805007,113.8,108
2023/11/10,7:54:00,0.026,N37.86454565836135,E140.52445927805007,113.8,70
2023/11/10,7:55:00,0.028,N37.86454565836135,E140.52445927805007,113.8,108
2023/11/10,7:56:00,0.034,N37.86454565836135,E140.52445927805007,113.8,82
2023/11/10,7:57:00,0.034,N37.86454565836135,E140.52445927805007,113.8,112
2023/11/10,7:58:00,0.055,N37.86454565836135,E140.52445927805007,113.8,88
2023/11/10,7:59:00,0.03,N37.86454565836135,E140.52445927805007,113.8,83
2023/11/10,8:00:00,0.021,N37.86454565836135,E140.52445927805007,113.8,82
2023/11/10,8:01:00,0.03,N37.86454565836135,E140.52445927805007,113.8,75
2023/11/10,8:02:00,0.044,N37.86454565836135,E140.52445927805007,113.8,63
2023/11/10,8:03:00,0.058,N37.86454565836135,E140.52445927805007,113.8,67
2023/11/10,8:05:00,0.036,N37.86454565836135,E140.52445927805007,113.8,72
2023/11/10,8:06:00,0.061,N37.86454565836135,E140.52445927805007,113.8,86
2023/11/10,8:07:00,0.058,N37.86454565836135,E140.52445927805007,113.8,78
2023/11/10,8:08:00,0.038,N37.86454565836135,E140.52445927805007,113.8,88
2023/11/10,8:09:00,0.027,N37.86454565836135,E140.52445927805007,113.8,58
2023/11/10,8:10:00,0.027,N38.26957007284984,E140.89918577032276,40.2,65
2023/11/10,8:11:00,0.021,N38.26957007284984,E140.89918577032276,40.2,42
2023/11/10,8:13:00,0.018,N38.26957007284984,E140.89918577032276,40.2,91
2023/11/10,8:14:00,0.059,N38.26957007284984,E140.89918577032276,40.2,123
2023/11/10,8:17:00,0.029,N38.485295505548976,E140.95952419185127,7.3,85
2023/11/10,8:18:00,0.06,N38.566432473013094,E140.96668063695677,74.2*,53
2023/11/10,8:19:00,0.053,N38.62181052781482,E140.99792139771395,27.6,59
2023/11/10,8:20:00,0.006,N38.62181052781482,E140.99792139771395,27.6,81
2023/11/10,8:21:00,0.037,N38.687700001827984,E141.0370636575335,43.4,75
2023/11/10,8:22:00,0.02,N38.687700001827984,E141.0370636575335,43.4,91
2023/11/10,8:23:00,0.043,N38.78773462340628,E141.09287471923065,12.8,64
2023/11/10,8:24:00,0.031,N38.78773462340628,E141.09287471923065,12.8,107
2023/11/10,8:25:00,0.034,N38.78773462340628,E141.09287471923065,12.8,92
2023/11/10,8:26:00,0.047,N38.78773462340628,E141.09287471923065,12.8,85
2023/11/10,8:27:00,0.019,N38.78773462340628,E141.09287471923065,12.8,82
2023/11/10,8:28:00,0.015,N38.78773462340628,E141.09287471923065,12.8,119
2023/11/10,8:29:00,0.021,N38.78773462340628,E141.09287471923065,12.8,130
2023/11/10,8:30:00,0.077,N38.78773462340628,E141.09287471923065,12.8,111
2023/11/10,8:31:00,0.031,N38.78773462340628,E141.09287471923065,12.8,76
2023/11/10,8:32:00,0.077,N38.78773462340628,E141.09287471923065,12.8,82
2023/11/10,8:33:00,0.02,N38.78773462340628,E141.09287471923065,12.8,64
2023/11/10,8:34:00,0.027,N38.78773462340628,E141.09287471923065,12.8,48
2023/11/10,8:35:00,0.014,N38.78773462340628,E141.09287471923065,12.8,75
2023/11/10,8:36:00,0.063,N38.78773462340628,E141.09287471923065,12.8,98
2023/11/10,8:37:00,0.027,N38.78773462340628,E141.09287471923065,12.8,75
2023/11/10,8:38:00,0.047,N38.78773462340628,E141.09287471923065,12.8,67
2023/11/10,8:39:00,0.028,N38.78773462340628,E141.09287471923065,12.8,52
2023/11/10,8:40:00,0.033,N38.78773462340628,E141.09287471923065,12.8,59
2023/11/10,8:41:00,0.024,N38.78773462340628,E141.09287471923065,12.8,60
2023/11/10,8:42:00,0.04,N39.64076185698377,E141.14587935729546,62.3,62
2023/11/10,8:43:00,0.052,N39.67850675380792,E141.14865105954246,125,63
2023/11/10,8:44:00,0.044,N39.67850675380792,E141.14865105954246,125,50
2023/11/10,8:45:00,0.019,N39.69746631696336,E141.1406562683952,136.7,53
2023/11/10,8:46:00,0.028,N39.69746631696336,E141.1406562683952,136.7,72
2023/11/10,8:47:00,0.016,N39.69746631696336,E141.1406562683952,136.7,60
2023/11/10,8:48:00,0.032,N39.69746631696336,E141.1406562683952,136.7,65
2023/11/10,8:49:00,0.053,N39.69746631696336,E141.1406562683952,136.7,66
2023/11/10,8:50:00,0.051,N39.69746631696336,E141.1406562683952,136.7,52
2023/11/10,8:51:00,0.049,N39.69746631696336,E141.1406562683952,136.7,58
2023/11/10,8:52:00,0.047,N39.69746631696336,E141.1406562683952,136.7,61
2023/11/10,8:53:00,0.047,N39.69746631696336,E141.1406562683952,136.7,58
2023/11/10,8:54:00,0.022,N39.75807536997218,E141.13614687419593,177.2,52
2023/11/10,8:55:00,0.019,N39.776306719312494,E141.1454883224035,196,51
2023/11/10,8:56:00,0.02,N39.776306719312494,E141.1454883224035,196,66
2023/11/10,8:57:00,0.037,N39.776306719312494,E141.1454883224035,196,81
2023/11/10,8:58:00,0.027,N39.776306719312494,E141.1454883224035,196,80
2023/11/10,8:59:00,0.005,N39.776306719312494,E141.1454883224035,196,79
2023/11/10,9:00:00,0.019,N39.96671444871793,E141.21824331784222,200.2,72
2023/11/10,9:01:00,0.04,N39.96671444871793,E141.21824331784222,200.2,68
2023/11/10,9:02:00,0.049,N39.96671444871793,E141.21824331784222,200.2,92
2023/11/10,9:03:00,0.041,N39.96671444871793,E141.21824331784222,200.2,103
2023/11/10,9:04:00,0.023,N39.96671444871793,E141.21824331784222,200.2,133
2023/11/10,9:05:00,0.032,N39.96671444871793,E141.21824331784222,200.2,99
2023/11/10,9:06:00,0.031,N39.96671444871793,E141.21824331784222,200.2,99
2023/11/10,9:07:00,0.013,N39.96671444871793,E141.21824331784222,200.2,100
2023/11/10,9:08:00,0.011,N39.96671444871793,E141.21824331784222,200.2,83
2023/11/10,9:09:00,0.007,N39.96671444871793,E141.21824331784222,200.2,57
2023/11/10,9:10:00,0.013,N39.96671444871793,E141.21824331784222,200.2,80
2023/11/10,9:11:00,0.033,N39.96671444871793,E141.21824331784222,200.2,86
2023/11/10,9:12:00,0.069,N39.96671444871793,E141.21824331784222,200.2,68
2023/11/10,9:13:00,0.049,N39.96671444871793,E141.21824331784222,200.2,84
2023/11/10,9:14:00,0.026,N39.96671444871793,E141.21824331784222,200.2,71
2023/11/10,9:15:00,0.018,N39.96671444871793,E141.21824331784222,200.2,63
2023/11/10,9:16:00,0.008,N39.96671444871793,E141.21824331784222,200.2,74
2023/11/10,9:17:00,0.018,N39.96671444871793,E141.21824331784222,200.2,81
2023/11/10,9:18:00,0.015,N39.96671444871793,E141.21824331784222,200.2,70
2023/11/10,9:19:00,0.042,N39.96671444871793,E141.21824331784222,200.2,64
2023/11/10,9:20:00,0.032,N39.96671444871793,E141.21824331784222,200.2,81
2023/11/10,9:21:00,0.04,N40.508424031404196,E141.4300840185893,16.5,83
2023/11/10,9:22:00,0.026,N40.508424031404196,E141.4300840185893,16.5,85
2023/11/10,9:23:00,0.026,N40.508424031404196,E141.4300840185893,16.5,95
2023/11/10,9:24:00,0.018,N40.51935780780203,E141.44039801733015,14.6,81
2023/11/10,9:25:00,0.025,N40.51935780780203,E141.44039801733015,14.6,60
2023/11/10,9:26:00,0.034,N40.56857934119645,E141.42924729835562,19.4,59
2023/11/10,9:27:00,0.04,N40.56857934119645,E141.42924729835562,19.4,60
2023/11/10,9:28:00,0.025,N40.56857934119645,E141.42924729835562,19.4,77
2023/11/10,9:29:00,0.015,N40.56857934119645,E141.42924729835562,19.4,87
2023/11/10,9:30:00,0.009,N40.56857934119645,E141.42924729835562,19.4,70
2023/11/10,9:31:00,0.048,N40.56857934119645,E141.42924729835562,19.4,78
2023/11/10,9:32:00,0.041,N40.56857934119645,E141.42924729835562,19.4,64
2023/11/10,9:33:00,0.027,N40.56857934119645,E141.42924729835562,19.4,60
2023/11/10,9:34:00,0.009,N40.56857934119645,E141.42924729835562,19.4,62
2023/11/10,9:35:00,0.049,N40.56857934119645,E141.42924729835562,19.4,67
2023/11/10,9:38:00,0.029,N40.73009040203673,E141.12939529603676,52.5,68
2023/11/10,9:39:00,0.033,N40.73009040203673,E141.12939529603676,52.5,79
2023/11/10,9:40:00,0.023,N40.73009040203673,E141.12939529603676,52.5,79
2023/11/10,9:41:00,0.019,N40.73009040203673,E141.12939529603676,52.5,68
2023/11/10,9:42:00,0.025,N40.73009040203673,E141.12939529603676,52.5,93
2023/11/10,9:43:00,0.032,N40.73009040203673,E141.12939529603676,52.5,92
2023/11/10,9:44:00,0.032,N40.73009040203673,E141.12939529603676,52.5,97
2023/11/10,9:45:00,0.026,N40.73009040203673,E141.12939529603676,52.5,71
2023/11/10,9:46:00,0.013,N40.73009040203673,E141.12939529603676,52.5,56
2023/11/10,9:47:00,0.019,N40.73009040203673,E141.12939529603676,52.5,71
2023/11/10,9:48:00,0.033,N40.81599103439586,E140.69283421733462,35,52
2023/11/10,9:49:00,0.031,N40.81599103439586,E140.69283421733462,35,49
2023/11/10,9:50:00,0.055,N40.8281732,E140.693319,13.8,70
